Weather History for Gainesville, FL

Change the Weather History Date:

Tuesday, March 6, 2012

  Actual Average Record
Temperature  
Mean Temperature 62 °F 61 °F  
Max Temperature 77 °F 73 °F 87 °F (1967)
Min Temperature 46 °F 48 °F 28 °F (1962)
Degree Days  
Heating Degree Days 3 6  
Month to date heating degree days 19 36  
Since 1 July heating degree days 674 1070  
Cooling Degree Days 0 1  
Month to date cooling degree days 29 6  
Year to date cooling degree days 103 38  
Growing Degree Days 10 (Base 50)    
Moisture  
Dew Point 43 °F    
Average Humidity 61    
Maximum Humidity 86    
Minimum Humidity 35    
Precipitation  
Precipitation 0.00 in 0.16 in 1.40 in (1932)
Month to date precipitation 0.45 0.92  
Year to date precipitation 2.36 7.43  
Snow  
Snow 0.00 in 0.00 in 0.00 in ()
Month to date snowfall 0.0 0.0  
Since 1 July snowfall 0.0 0.0  
Snow Depth 0.00 in    
Sea Level Pressure  
Sea Level Pressure 30.43 in    
Wind  
Wind Speed 10 mph (ENE)    
Max Wind Speed 22 mph    
Max Gust Speed 29 mph    
Visibility 10 miles    
Events      
T = Trace of Precipitation, MM = Missing Value Source: NWS Daily Summary

Daily Weather History Graph

Daily Weather History Graph

Search for Another Location

Airport:

Trip Planner

Search our weather history database for the weather conditions in past years. The results will help you decide how hot, cold, wet, or windy it might be!

Date:

Astronomy

Mar. 06, 2012 Rise Set
Actual Time 6:48 AM EST 6:32 PM EST
Civil Twilight 6:24 AM EST 6:55 PM EST
Nautical Twilight 5:57 AM EST 7:23 PM EST
Astronomical Twilight 5:29 AM EST 7:51 PM EST
Moon 5:01 PM EST (3/6) 5:17 AM EST (3/6)
Length of Visible Light 12h 31m
Length of Day
11h 43m
Waxing Gibbous, 96% of the Moon is Illuminated
Mar 6
Waxing Gibbous
Mar 8
Full
Mar 14
Last Quarter
Mar 22
New
Mar 30
First Quarter

Hourly Weather History & Observations

Time (EST) Temp. Windchill Dew Point Humidity Pressure Visibility Wind Dir Wind Speed Gust Speed Precip Events Conditions
12:53 AM 55.0 °F - 37.9 °F 53% 30.39 in 10.0 mi NNE 9.2 mph - N/A   Clear
1:53 AM 53.1 °F - 32.0 °F 45% 30.39 in 10.0 mi NNE 5.8 mph - N/A   Clear
2:53 AM 51.1 °F - 30.9 °F 46% 30.38 in 10.0 mi North 5.8 mph - N/A   Clear
3:53 AM 50.0 °F - 30.0 °F 46% 30.39 in 10.0 mi North 4.6 mph - N/A   Clear
4:53 AM 48.0 °F - 30.9 °F 52% 30.40 in 10.0 mi North 4.6 mph - N/A   Clear
5:53 AM 46.9 °F - 32.0 °F 56% 30.42 in 10.0 mi NNE 4.6 mph - N/A   Clear
6:53 AM 46.4 °F 45.2 °F 32.0 °F 57% 30.43 in 10.0 mi NNE 3.5 mph - N/A   Clear
7:53 AM 52.0 °F - 37.0 °F 57% 30.45 in 10.0 mi NE 5.8 mph - N/A   Clear
8:53 AM 62.1 °F - 43.0 °F 50% 30.47 in 10.0 mi NE 10.4 mph - N/A   Clear
9:53 AM 68.0 °F - 46.0 °F 45% 30.48 in 10.0 mi East 12.7 mph 26.5 mph N/A   Clear
10:53 AM 71.1 °F - 46.9 °F 42% 30.48 in 10.0 mi East 16.1 mph 24.2 mph N/A   Clear
11:53 AM 73.9 °F - 44.1 °F 34% 30.46 in 10.0 mi East 13.8 mph 27.6 mph N/A   Scattered Clouds
12:53 PM 75.9 °F - 46.0 °F 35% 30.44 in 10.0 mi ENE 15.0 mph 23.0 mph N/A   Mostly Cloudy
1:53 PM 75.9 °F - 48.0 °F 37% 30.42 in 10.0 mi ENE 15.0 mph 21.9 mph N/A   Mostly Cloudy
2:53 PM 75.9 °F - 48.0 °F 37% 30.41 in 10.0 mi East 15.0 mph 25.3 mph N/A   Mostly Cloudy
3:53 PM 73.0 °F - 46.9 °F 39% 30.42 in 10.0 mi East 13.8 mph 25.3 mph N/A   Mostly Cloudy
4:53 PM 70.0 °F - 48.0 °F 46% 30.43 in 10.0 mi East 16.1 mph 25.3 mph N/A   Scattered Clouds
5:53 PM 68.0 °F - 46.4 °F 46% 30.43 in 10.0 mi East 15.0 mph 21.9 mph N/A   Scattered Clouds
6:53 PM 66.0 °F - 48.9 °F 54% 30.44 in 10.0 mi East 10.4 mph - N/A   Overcast
7:53 PM 64.9 °F - 50.0 °F 58% 30.44 in 10.0 mi East 6.9 mph - N/A   Overcast
8:53 PM 64.4 °F - 50.0 °F 59% 30.45 in 10.0 mi East 5.8 mph - N/A   Overcast
9:53 PM 64.0 °F - 50.0 °F 60% 30.47 in 10.0 mi East 5.8 mph - N/A   Overcast
10:53 PM 63.0 °F - 48.9 °F 60% 30.47 in 10.0 mi East 6.9 mph - N/A   Overcast
11:53 PM 60.1 °F - 48.9 °F 67% 30.46 in 10.0 mi East 8.1 mph - N/A   Clear